Wind_Speed
17 13 16 19 18 21 18 22 21 20 16 17 22 22 21 21 27 26 30 30 29 26 24 22 27 30 24 23 27 30 29 27 26 30 26 22 21 17 21 23 22 23 24 24
14 17 19 16 16 17 19 22 23 21 19 15 19 22 20 22 23 30 29 28 28 25 26 26 26 29 22 24 27 29 28 27 33 30 21 20 17 15 15 21 22 25 26 26
18 10 4 16 15 16 18 19 21 20 18 19 22 24 24 17 19 19 21 27 28 27 27 25 26 30 23 24 26 29 28 27 28 22 20 16 14 14 16 17 18 18 20 22
18 16 14 11 15 15 18 17 17 15 15 11 12 14 19 17 9 8 8 13 16 24 28 25 26 30 28 25 25 27 28 28 27 24 22 20 18 16 15 15 15 16 22 20
14 12 12 19 20 17 17 13 10 14 15 16 18 11 16 12 8 4 9 12 14 16 20 23 28 28 31 28 26 27 28 28 28 26 23 20 17 13 14 14 17 16 20 19
17 18 9 12 11 13 13 10 13 15 13 13 19 15 12 4 8 6 7 7 13 13 11 11 14 19 27 30 27 27 28 29 30 28 23 20 18 15 14 15 18 18 15 15
17 22 22 15 15 11 14 12 7 8 7 10 5 6 12 9 6 7 9 12 9 12 14 13 11 18 23 25 26 27 30 33 30 28 23 20 17 16 15 15 19 18 14 9
15 13 18 18 21 12 17 16 8 9 8 9 0 8 5 12 12 7 8 8 11 10 10 12 15 12 18 20 25 30 33 36 33 27 23 20 17 14 14 17 18 17 14 10
7 10 4 5 14 19 19 15 17 17 20 13 9 13 15 12 8 5 7 14 15 15 17 16 20 7 12 19 28 30 32 35 31 26 23 20 18 16 16 16 15 14 13 12
10 16 15 10 9 16 18 4 8 8 6 10 14 17 9 8 5 6 13 13 16 17 18 17 18 9 8 17 18 21 34 28 29 24 22 19 18 16 15 16 16 14 11 11
16 13 14 11 12 13 12 11 9 6 9 5 7 2 12 8 7 10 13 14 16 16 17 18 16 11 3 11 11 22 28 26 28 23 21 19 20 16 16 17 16 15 14 14
6 7 15 20 9 8 10 13 15 8 12 6 4 2 5 8 5 6 7 11 13 14 14 15 14 12 8 6 11 21 26 26 26 19 19 20 21 19 18 18 15 12 11 10
7 5 8 18 9 13 13 14 11 10 6 9 5 1 7 5 8 7 6 8 11 13 14 13 12 13 11 8 11 16 20 23 23 19 18 18 18 21 19 16 16 11 10 12
2 6 14 16 9 10 20 16 13 12 5 6 7 13 3 12 11 13 7 8 11 13 14 12 11 11 10 12 15 19 17 21 21 19 18 19 18 17 16 20 15 16 14 11
3 9 20 25 11 10 6 13 13 13 11 7 10 13 14 11 14 11 8 8 11 13 15 14 11 10 8 10 17 19 21 24 24 24 22 20 20 18 19 21 16 14 15 14
7 7 18 18 7 3 4 7 6 6 8 10 11 10 20 25 17 16 13 10 11 13 14 12 9 9 9 9 13 17 21 23 24 25 24 22 20 20 21 22 20 17 16 16
6 5 11 6 0 3 5 10 4 0 4 10 8 12 13 13 14 19 14 14 14 13 13 13 12 11 10 9 8 13 17 20 24 24 22 21 20 20 21 22 21 19 19 19
11 15 8 4 3 5 2 3 7 3 11 8 8 12 8 8 12 15 15 15 14 14 14 15 15 13 14 11 10 12 15 17 22 22 20 19 19 20 19 20 19 18 17 16
15 12 3 4 4 1 10 6 6 5 7 13 11 14 8 10 10 13 12 12 14 14 12 13 18 17 16 16 17 19 18 20 21 20 19 19 16 17 18 18 16 15 14 13
16 14 7 1 2 5 4 9 6 6 5 13 15 14 15 3 4 3 8 11 13 15 16 15 14 20 19 18 17 21 22 25 26 25 22 21 23 21 20 19 18 18 15 16
9 8 8 3 1 5 12 12 12 7 6 14 15 15 16 5 8 15 12 13 12 13 13 15 20 20 18 18 18 22 22 23 21 21 20 19 21 21 20 17 16 18 16 14
7 5 5 3 3 3 19 4 7 8 12 13 12 10 14 15 17 15 13 13 13 14 14 15 18 19 20 21 20 22 22 19 19 21 17 22 22 23 21 21 17 15 16 17
2 5 5 7 4 9 13 11 8 10 9 9 8 9 12 13 13 13 13 11 12 13 15 15 17 19 20 20 20 23 20 16 19 19 19 21 18 22 22 21 19 17 16 17
4 10 2 3 6 9 11 10 11 10 10 9 9 10 11 14 12 13 12 11 10 13 17 16 17 19 20 20 21 19 16 18 17 21 21 20 20 21 20 18 18 20 17 16
6 8 7 5 6 5 13 12 10 10 11 10 11 11 11 12 13 11 11 12 12 14 16 17 18 18 18 16 18 17 14 13 16 19 19 22 20 21 20 20 21 18 16 14
6 5 4 3 6 4 6 9 8 9 9 8 9 11 11 11 12 11 12 13 14 16 17 19 19 19 19 18 17 16 16 14 13 15 15 15 15 15 16 17 18 17 14 11
Wind_Direction
196 222 230 235 225 253 269 278 282 281 288 278 273 272 271 269 259 260 258 255 251 251 249 238 230 223 218 216 203 199 197 196 194 201 212 215 228 224 225 223 223 226 230 233
228 232 247 243 239 241 254 264 266 275 278 264 273 273 276 266 261 259 258 257 254 248 244 232 230 222 208 210 200 197 199 194 204 209 207 210 212 214 222 225 227 232 234 235
239 248 257 241 241 245 250 258 273 281 294 287 274 275 264 243 247 254 261 254 252 246 242 235 228 224 203 209 201 200 198 194 202 191 191 193 194 209 218 225 228 230 236 238
255 246 245 248 251 238 260 264 255 272 277 275 320 294 298 293 263 268 256 252 254 246 243 237 233 227 208 207 205 201 197 195 199 191 194 196 199 204 215 214 213 214 223 229
251 237 253 250 241 255 263 279 269 266 269 278 274 266 272 221 228 40 353 357 319 239 237 235 233 234 230 208 204 200 195 193 195 192 193 193 194 203 208 206 210 228 226 236
254 261 236 265 265 241 242 265 252 262 261 264 264 244 267 212 67 18 4 354 347 347 326 269 260 252 228 202 199 197 194 190 195 193 189 190 194 192 198 213 207 216 219 229
237 235 241 224 250 217 215 230 251 223 221 248 282 208 237 105 77 33 14 11 11 351 342 324 280 253 239 189 192 195 194 189 186 191 186 190 191 194 195 208 209 207 215 218
281 260 210 207 227 210 207 214 232 256 260 292 138 216 186 103 77 35 22 10 6 357 342 321 329 267 223 202 197 193 191 185 186 183 184 189 188 190 193 205 206 209 221 236
305 257 260 198 221 230 234 230 243 265 279 277 255 284 162 114 83 18 24 15 10 1 358 348 342 284 215 196 195 196 193 183 186 179 184 189 182 188 186 194 200 205 216 229
290 280 228 175 215 230 238 274 209 217 244 235 243 228 152 114 44 359 29 15 10 8 3 358 353 354 216 189 187 202 189 182 182 179 184 188 182 185 186 184 189 202 215 233
304 265 258 205 208 200 203 219 222 253 259 280 289 122 100 103 27 11 22 20 19 11 8 3 358 18 124 167 205 195 184 181 176 181 179 178 175 189 184 187 198 207 213 220
339 299 257 228 202 265 256 237 227 229 216 238 288 344 85 42 23 29 16 14 13 21 15 15 11 39 69 156 181 178 189 187 179 175 178 179 175 177 188 177 191 189 189 206
4 309 286 247 178 195 235 224 239 238 252 243 259 128 345 321 3 75 15 12 20 24 26 25 20 45 63 137 169 174 178 184 174 175 171 171 187 185 184 176 170 177 184 186
322 270 263 262 270 300 215 225 217 228 239 272 259 300 305 353 347 350 64 19 25 27 39 34 25 38 69 90 155 162 177 174 171 170 170 173 178 177 180 179 173 192 192 183
258 270 293 256 232 246 192 252 212 216 239 263 299 324 322 353 344 43 67 28 24 27 41 31 25 26 53 77 126 151 161 163 173 169 170 167 166 167 178 178 176 182 187 185
286 276 300 229 218 237 181 195 229 262 283 281 275 274 14 18 21 54 49 41 35 28 40 31 32 29 41 52 100 130 143 159 164 168 174 171 173 175 180 178 181 182 181 183
265 288 292 139 330 247 258 225 192 174 16 5 5 352 25 39 38 28 44 50 45 39 36 36 41 38 38 56 85 123 135 144 154 163 168 173 171 174 175 177 183 190 195 197
251 265 263 91 211 187 121 105 75 327 74 37 1 18 54 93 85 54 51 57 51 49 41 44 53 61 59 64 83 108 128 135 136 144 147 151 162 163 162 169 178 184 188 191
220 261 286 134 176 110 129 67 34 340 77 22 1 1 33 138 116 61 54 69 68 62 53 60 61 64 71 71 79 93 94 105 107 110 125 130 133 147 145 142 143 144 152 150
215 236 280 266 101 139 79 36 348 295 192 19 5 359 344 301 242 101 89 89 81 73 65 60 69 80 73 67 76 89 88 89 88 92 89 95 101 101 104 104 108 111 117 113
214 225 244 205 260 96 9 336 308 235 12 8 16 16 21 53 64 118 112 95 91 85 78 75 70 64 70 81 77 76 76 81 89 94 93 103 103 97 91 95 96 99 96 94
205 208 210 215 214 185 357 46 25 351 356 18 37 55 84 89 93 96 95 91 88 82 74 71 72 69 63 62 70 80 73 68 85 96 99 100 101 102 104 112 108 102 108 109
79 24 346 26 55 66 46 61 36 18 43 35 72 91 103 97 92 95 90 85 87 89 85 80 75 74 70 69 74 77 81 92 93 100 94 91 100 107 108 103 102 100 96 102
80 14 14 218 63 61 47 44 43 48 63 68 91 102 109 103 97 91 85 83 83 83 82 81 80 76 76 76 68 70 77 77 88 92 95 98 107 105 102 109 115 115 104 105
0 329 338 92 102 109 52 44 46 59 72 79 88 93 98 104 92 91 93 94 88 85 82 85 85 80 75 82 94 94 73 77 83 84 84 87 88 90 96 103 102 99 98 101
16 7 353 23 355 334 53 50 58 78 80 83 94 96 89 96 102 103 94 93 89 89 91 89 86 86 85 86 85 86 89 84 83 87 87 86 84 84 85 87 89 92 90 90
Height
1450 1448 1441 1440 1438 1438 1436 1434 1426 1421 1418 1425 1419 1412 1409 1407 1401 1398 1396 1396 1397 1399 1400 1403 1404 1407 1410 1415 1419 1424 1425 1429 1435 1436 1439 1443 1445 1449 1451 1454 1456 1459 1463 1465
1442 1439 1433 1432 1435 1439 1441 1437 1431 1422 1418 1418 1413 1404 1399 1394 1391 1387 1387 1388 1390 1393 1394 1397 1399 1401 1406 1412 1414 1419 1421 1425 1428 1431 1436 1440 1442 1447 1449 1450 1452 1456 1459 1461
1432 1426 1427 1431 1431 1436 1435 1436 1429 1424 1417 1412 1407 1395 1385 1377 1375 1378 1379 1380 1384 1386 1388 1391 1394 1396 1400 1407 1410 1414 1417 1422 1425 1429 1435 1437 1440 1443 1445 1446 1450 1453 1455 1457
1425 1424 1427 1435 1431 1429 1429 1423 1423 1427 1427 1417 1393 1400 1382 1373 1369 1373 1374 1377 1378 1381 1384 1386 1388 1391 1394 1400 1405 1410 1413 1418 1422 1426 1430 1431 1434 1438 1442 1445 1448 1450 1451 1453
1425 1424 1429 1427 1428 1429 1428 1422 1427 1424 1420 1415 1407 1402 1380 1363 1372 1372 1374 1377 1377 1376 1378 1382 1384 1386 1388 1392 1399 1404 1408 1413 1418 1423 1426 1428 1433 1437 1440 1442 1443 1445 1447 1449
1423 1420 1425 1424 1424 1426 1424 1427 1427 1424 1416 1415 1399 1398 1376 1360 1374 1381 1381 1383 1383 1379 1378 1377 1378 1379 1381 1384 1393 1399 1402 1408 1412 1419 1421 1425 1430 1433 1435 1437 1440 1441 1443 1444
1415 1415 1417 1423 1425 1422 1423 1428 1427 1420 1419 1412 1378 1383 1371 1371 1377 1382 1385 1386 1387 1388 1386 1382 1380 1379 1378 1378 1387 1394 1397 1404 1407 1415 1419 1422 1426 1429 1431 1434 1436 1439 1440 1441
1407 1405 1400 1409 1417 1414 1417 1417 1421 1416 1403 1397 1379 1385 1370 1371 1382 1387 1388 1389 1388 1390 1392 1387 1382 1377 1376 1378 1385 1389 1392 1398 1403 1412 1416 1419 1422 1425 1429 1431 1433 1436 1438 1440
1414 1403 1405 1408 1409 1415 1412 1413 1406 1411 1401 1400 1384 1362 1364 1372 1384 1386 1384 1386 1388 1389 1386 1383 1375 1374 1376 1379 1379 1385 1391 1397 1402 1410 1414 1415 1418 1421 1426 1429 1431 1435 1437 1439
1425 1415 1402 1403 1410 1408 1405 1408 1418 1415 1414 1401 1371 1360 1360 1384 1384 1382 1382 1387 1389 1388 1387 1381 1378 1377 1380 1377 1380 1386 1392 1396 1402 1408 1411 1412 1416 1419 1424 1427 1430 1433 1436 1437
1439 1426 1405 1398 1406 1404 1409 1411 1412 1406 1401 1395 1383 1372 1373 1381 1381 1382 1385 1389 1390 1390 1389 1384 1381 1377 1378 1378 1382 1386 1392 1395 1401 1405 1407 1410 1414 1417 1421 1425 1429 1433 1435 1437
1450 1441 1409 1401 1393 1396 1404 1401 1400 1405 1395 1388 1392 1381 1377 1378 1381 1383 1388 1391 1393 1392 1390 1386 1385 1382 1382 1384 1386 1387 1390 1395 1400 1404 1406 1408 1413 1416 1420 1423 1428 1431 1434 1436
1453 1435 1415 1394 1401 1395 1397 1399 1399 1400 1400 1398 1395 1385 1387 1376 1376 1380 1387 1393 1394 1393 1391 1387 1388 1384 1383 1386 1388 1388 1393 1396 1399 1403 1407 1409 1412 1415 1419 1423 1427 1431 1433 1436
1455 1442 1428 1398 1391 1393 1389 1389 1394 1397 1402 1391 1387 1377 1372 1375 1377 1380 1388 1395 1396 1396 1392 1391 1392 1390 1388 1387 1388 1389 1395 1396 1399 1403 1406 1410 1412 1415 1418 1422 1426 1429 1433 1435
1453 1441 1431 1405 1398 1396 1391 1393 1391 1395 1393 1395 1383 1382 1379 1376 1379 1384 1393 1399 1400 1400 1395 1394 1394 1393 1392 1390 1388 1390 1393 1394 1397 1399 1404 1408 1410 1413 1416 1420 1423 1427 1430 1434
1449 1432 1432 1403 1389 1387 1388 1387 1388 1388 1390 1389 1386 1382 1390 1393 1388 1395 1401 1404 1405 1405 1401 1400 1398 1398 1395 1393 1389 1391 1393 1395 1397 1399 1403 1407 1410 1412 1415 1419 1423 1425 1429 1432
1450 1437 1418 1395 1399 1393 1397 1389 1388 1390 1389 1390 1398 1401 1402 1407 1413 1413 1411 1412 1412 1410 1408 1405 1403 1401 1400 1398 1397 1394 1394 1395 1396 1398 1403 1407 1409 1411 1414 1417 1421 1424 1428 1431
1438 1434 1422 1405 1404 1409 1402 1391 1394 1393 1400 1404 1405 1405 1413 1418 1420 1418 1417 1416 1416 1414 1413 1412 1408 1405 1405 1404 1402 1399 1397 1398 1396 1398 1402 1405 1407 1410 1413 1414 1418 1422 1425 1428
1432 1427 1406 1402 1415 1400 1397 1401 1402 1399 1410 1414 1413 1413 1414 1417 1418 1422 1423 1421 1420 1419 1419 1417 1414 1412 1411 1410 1409 1403 1403 1401 1400 1402 1404 1406 1408 1409 1410 1411 1417 1421 1423 1426
1419 1416 1413 1396 1397 1401 1410 1404 1406 1403 1405 1418 1419 1419 1417 1414 1411 1423 1425 1424 1423 1423 1423 1420 1419 1415 1416 1416 1416 1406 1410 1406 1405 1408 1414 1411 1411 1412 1411 1412 1420 1422 1424 1426
1410 1408 1406 1400 1397 1394 1411 1409 1406 1405 1422 1425 1424 1425 1424 1420 1421 1425 1427 1427 1427 1427 1427 1428 1425 1421 1418 1417 1421 1417 1415 1412 1413 1414 1418 1417 1415 1416 1414 1416 1426 1427 1425 1427
1400 1401 1400 1395 1397 1404 1421 1410 1413 1432 1429 1429 1429 1430 1430 1430 1430 1430 1431 1432 1432 1431 1431 1430 1427 1425 1424 1421 1419 1416 1420 1424 1423 1418 1422 1416 1419 1417 1421 1422 1428 1431 1431 1433
1412 1415 1410 1412 1421 1430 1432 1434 1436 1435 1434 1433 1433 1434 1434 1435 1435 1435 1435 1436 1436 1435 1433 1433 1431 1431 1431 1428 1429 1424 1428 1432 1427 1428 1430 1421 1428 1424 1428 1427 1431 1437 1440 1439
1415 1418 1417 1417 1434 1435 1436 1436 1437 1436 1436 1437 1437 1438 1438 1438 1439 1440 1440 1441 1440 1438 1435 1434 1434 1434 1433 1434 1435 1435 1438 1430 1438 1432 1428 1430 1436 1431 1432 1435 1437 1439 1441 1443
1428 1422 1425 1433 1438 1437 1438 1439 1439 1440 1439 1440 1440 1440 1441 1441 1442 1443 1445 1445 1444 1442 1441 1440 1440 1440 1439 1439 1438 1441 1442 1443 1444 1438 1440 1436 1441 1436 1438 1442 1440 1441 1444 1447
1439 1441 1436 1435 1441 1439 1443 1442 1442 1442 1443 1444 1443 1443 1444 1444 1445 1447 1447 1447 1446 1444 1443 1443 1445 1446 1445 1446 1446 1447 1446 1446 1448 1443 1443 1445 1445 1446 1446 1445 1444 1447 1449 1449